JILIN-01 GAOFEN 3C (46455 NORAD) Tracking and Keplerian Element Data

This shows tracking and keplerian element data for the satellite.

Feedback or suggestion? Click here.




ElementValue
Catalog46455
NameJILIN-01 GAOFEN 3C
Epoch Orbit148
Epoch Day268.8621106
Epoch Year2020
RAAN324.3503
Inclination97.5326
Eccentricity0.0011195
Argument of Perigee256.6962
Mean Anonmoly191.0506
Mean Motion15.09234498
Decay Rate-1.84E-06
L11 46455U 20065B 20268.86211060 -.00000184 00000-0 -75935-5 0 9998
L22 46455 97.5326 324.3503 0011195 256.6962 191.0506 15.09234498 1481

Live tracking and technical data element details for JILIN-01 GAOFEN 3C (NORAD 46455). JILIN-01 GAOFEN 3C can be tracked NOW for your location showing map with azimuth and elevation plus other details from your city location.

Track the satellite on the map from your city or location and see movement details for azimuth, elevation, latitude, longitude, range, height, and movement on the map or in text.







IsCatalogInMostPopularTable: catalog: 46455, numindb: 5
Update: records affected: 1



GetName: 46455 JILIN-01 GAOFEN 3C

Hit Count: updated at: Sat, 26 Sep 2020 15:54:35 GMT